TimeEDT,TemperatureF,Dew PointF,Humidity,Sea Level PressureIn,VisibilityMPH,Wind Direction,Wind SpeedMPH,Gust SpeedMPH,PrecipitationIn,Events,Conditions,WindDirDegrees,DateUTC
12:15 AM,53.6,39.9,60,29.81,10.0,Calm,Calm,-,N/A,,Overcast,0,2012-10-20 04:15:00
12:35 AM,53.1,39.6,60,29.80,10.0,Calm,Calm,-,N/A,,Overcast,0,2012-10-20 04:35:00
12:55 AM,53.6,36.9,53,29.79,10.0,West,5.8,-,N/A,,Overcast,270,2012-10-20 04:55:00
1:15 AM,51.8,38.7,61,29.80,10.0,SSW,3.5,-,N/A,,Overcast,200,2012-10-20 05:15:00
1:35 AM,52.0,38.1,59,29.80,10.0,Calm,Calm,-,N/A,,Overcast,0,2012-10-20 05:35:00
1:55 AM,51.4,38.1,60,29.81,10.0,Calm,Calm,-,N/A,,Overcast,0,2012-10-20 05:55:00
2:15 AM,50.0,39.4,67,29.81,10.0,Calm,Calm,-,N/A,,Overcast,0,2012-10-20 06:15:00
2:35 AM,49.1,39.4,69,29.81,10.0,Calm,Calm,-,N/A,,Overcast,0,2012-10-20 06:35:00
2:55 AM,48.2,40.6,75,29.81,3.0,Calm,Calm,-,N/A,,Haze,0,2012-10-20 06:55:00
3:15 AM,48.0,41.2,77,29.81,10.0,Calm,Calm,-,N/A,,Overcast,0,2012-10-20 07:15:00
3:35 AM,49.1,41.2,74,29.81,10.0,Calm,Calm,-,N/A,,Overcast,0,2012-10-20 07:35:00
3:55 AM,48.6,41.4,76,29.81,10.0,Calm,Calm,-,N/A,,Overcast,0,2012-10-20 07:55:00
4:15 AM,48.9,41.4,75,29.81,10.0,WSW,3.5,-,N/A,,Overcast,240,2012-10-20 08:15:00
4:35 AM,49.8,40.3,70,29.82,10.0,WSW,4.6,-,N/A,,Overcast,250,2012-10-20 08:35:00
4:55 AM,49.8,40.1,69,29.82,10.0,SW,4.6,-,N/A,,Overcast,230,2012-10-20 08:55:00
5:15 AM,50.4,38.8,65,29.82,10.0,WNW,9.2,-,N/A,,Overcast,290,2012-10-20 09:15:00
5:35 AM,50.4,38.5,64,29.83,10.0,West,8.1,-,N/A,,Overcast,280,2012-10-20 09:35:00
5:55 AM,50.2,38.8,65,29.83,10.0,West,6.9,-,N/A,,Overcast,280,2012-10-20 09:55:00
6:15 AM,50.0,38.7,65,29.83,10.0,NW,10.4,-,N/A,,Overcast,310,2012-10-20 10:15:00
6:35 AM,49.3,38.5,66,29.83,10.0,WNW,8.1,-,N/A,,Mostly Cloudy,300,2012-10-20 10:35:00
6:55 AM,49.3,38.8,67,29.84,10.0,WNW,6.9,-,N/A,,Mostly Cloudy,290,2012-10-20 10:55:00
7:15 AM,49.3,39.2,68,29.84,10.0,WNW,5.8,-,N/A,,Overcast,300,2012-10-20 11:15:00
7:35 AM,49.1,39.2,69,29.85,10.0,WNW,8.1,-,N/A,,Overcast,290,2012-10-20 11:35:00
7:55 AM,49.1,39.2,69,29.86,10.0,WNW,8.1,-,N/A,,Overcast,300,2012-10-20 11:55:00
8:15 AM,49.1,39.2,69,29.87,10.0,WNW,11.5,-,N/A,,Overcast,290,2012-10-20 12:15:00
8:35 AM,49.3,39.2,68,29.88,10.0,WNW,6.9,-,N/A,,Overcast,290,2012-10-20 12:35:00
8:55 AM,49.3,39.4,69,29.88,10.0,West,6.9,-,N/A,,Overcast,280,2012-10-20 12:55:00
9:15 AM,50.0,39.9,68,29.89,10.0,WNW,5.8,-,N/A,,Overcast,290,2012-10-20 13:15:00
9:35 AM,50.9,40.1,67,29.89,10.0,West,8.1,-,N/A,,Overcast,260,2012-10-20 13:35:00
9:55 AM,51.3,40.3,66,29.89,10.0,WSW,10.4,-,N/A,,Overcast,250,2012-10-20 13:55:00
10:15 AM,52.2,39.7,63,29.89,10.0,West,13.8,18.4,N/A,,Overcast,260,2012-10-20 14:15:00
10:35 AM,52.7,38.8,59,29.89,10.0,West,16.1,24.2,N/A,,Overcast,280,2012-10-20 14:35:00
10:55 AM,53.6,37.8,55,29.90,10.0,West,15.0,20.7,N/A,,Overcast,260,2012-10-20 14:55:00
11:15 AM,54.3,37.6,53,29.90,10.0,West,18.4,27.6,N/A,,Overcast,260,2012-10-20 15:15:00
11:35 AM,52.9,38.8,59,29.90,10.0,WSW,13.8,25.3,N/A,,Overcast,250,2012-10-20 15:35:00
11:55 AM,53.8,38.8,57,29.90,10.0,West,12.7,21.9,N/A,,Overcast,260,2012-10-20 15:55:00
12:15 PM,54.5,39.6,57,29.90,10.0,WSW,11.5,18.4,N/A,,Overcast,240,2012-10-20 16:15:00
12:35 PM,54.3,39.6,57,29.91,10.0,West,12.7,-,N/A,,Overcast,260,2012-10-20 16:35:00
12:55 PM,55.4,39.9,56,29.91,10.0,WSW,15.0,19.6,N/A,,Overcast,250,2012-10-20 16:55:00
1:15 PM,54.5,39.6,57,29.91,10.0,West,12.7,20.7,N/A,,Overcast,270,2012-10-20 17:15:00
1:35 PM,54.3,39.6,57,29.91,10.0,WSW,12.7,18.4,N/A,,Overcast,250,2012-10-20 17:35:00
1:55 PM,54.0,39.4,58,29.90,10.0,WSW,13.8,19.6,N/A,,Overcast,250,2012-10-20 17:55:00
2:15 PM,53.6,39.9,60,29.90,10.0,WSW,11.5,20.7,N/A,,Overcast,250,2012-10-20 18:15:00
2:35 PM,54.3,39.9,58,29.90,10.0,West,16.1,20.7,N/A,,Overcast,260,2012-10-20 18:35:00
2:55 PM,54.5,39.6,57,29.90,10.0,West,11.5,-,N/A,,Overcast,270,2012-10-20 18:55:00
3:15 PM,54.7,40.3,58,29.90,10.0,West,10.4,-,N/A,,Overcast,260,2012-10-20 19:15:00
3:35 PM,54.0,39.4,58,29.90,10.0,WSW,12.7,18.4,N/A,,Overcast,250,2012-10-20 19:35:00
3:55 PM,54.7,39.9,58,29.90,10.0,West,10.4,17.3,N/A,,Overcast,270,2012-10-20 19:55:00
4:15 PM,54.5,38.3,54,29.91,10.0,West,10.4,20.7,N/A,,Overcast,260,2012-10-20 20:15:00
4:35 PM,54.5,38.5,55,29.91,10.0,West,10.4,17.3,N/A,,Overcast,280,2012-10-20 20:35:00
4:55 PM,54.1,37.8,54,29.92,10.0,West,9.2,-,N/A,,Overcast,280,2012-10-20 20:55:00
5:15 PM,53.6,38.3,56,29.93,10.0,NW,6.9,-,N/A,,Mostly Cloudy,310,2012-10-20 21:15:00
5:35 PM,53.6,39.0,58,29.94,10.0,WNW,8.1,-,N/A,,Mostly Cloudy,290,2012-10-20 21:35:00
5:55 PM,54.3,38.1,54,29.94,10.0,West,12.7,16.1,N/A,,Overcast,280,2012-10-20 21:55:00
6:15 PM,53.2,37.8,56,29.95,10.0,NW,6.9,-,N/A,,Overcast,310,2012-10-20 22:15:00
6:35 PM,52.3,37.2,56,29.96,10.0,WNW,6.9,-,N/A,,Mostly Cloudy,290,2012-10-20 22:35:00
6:55 PM,51.6,36.9,57,29.96,10.0,WNW,5.8,-,N/A,,Scattered Clouds,290,2012-10-20 22:55:00
7:15 PM,51.3,36.9,58,29.96,10.0,WNW,8.1,-,N/A,,Overcast,290,2012-10-20 23:15:00
7:35 PM,50.2,37.0,61,29.97,10.0,WNW,5.8,-,N/A,,Overcast,290,2012-10-20 23:35:00
7:55 PM,49.8,37.0,61,29.97,10.0,NW,4.6,-,N/A,,Scattered Clouds,310,2012-10-20 23:55:00
8:15 PM,48.6,37.4,65,29.98,10.0,WNW,4.6,-,N/A,,Scattered Clouds,290,2012-10-21 00:15:00
8:35 PM,46.9,37.4,69,29.98,10.0,NW,4.6,-,N/A,,Scattered Clouds,310,2012-10-21 00:35:00
8:55 PM,46.6,37.6,71,29.99,10.0,West,5.8,-,N/A,,Scattered Clouds,280,2012-10-21 00:55:00
9:15 PM,45.9,37.8,73,30.00,10.0,WNW,4.6,-,N/A,,Scattered Clouds,300,2012-10-21 01:15:00
9:35 PM,46.0,37.8,73,30.00,10.0,WNW,4.6,-,N/A,,Clear,300,2012-10-21 01:35:00
9:55 PM,45.5,38.1,75,30.00,10.0,Calm,Calm,-,N/A,,Clear,0,2012-10-21 01:55:00
10:15 PM,44.8,38.1,77,30.01,10.0,Calm,Calm,-,N/A,,Clear,0,2012-10-21 02:15:00
10:35 PM,43.0,37.8,82,30.01,10.0,Calm,Calm,-,N/A,,Clear,0,2012-10-21 02:35:00
10:55 PM,42.8,38.3,84,30.02,10.0,Calm,Calm,-,N/A,,Clear,0,2012-10-21 02:55:00
11:15 PM,41.7,38.3,88,30.02,10.0,Calm,Calm,-,N/A,,Clear,0,2012-10-21 03:15:00
11:35 PM,41.4,37.8,87,30.03,10.0,Calm,Calm,-,N/A,,Scattered Clouds,0,2012-10-21 03:35:00
11:55 PM,41.0,37.8,88,30.03,10.0,Calm,Calm,-,N/A,,Scattered Clouds,0,2012-10-21 03:55:00